GEFSSE_500_meanwind_090.txt.gz
Wind_Speed
14 14 14 14 14 14 14 14 15 15 15 14 14 14 15 15 15 15 15 16 16 16 16 16 16 16 16 17 17 17 18 18 18 18 18 19 19 19 19 19 19 19 19
15 14 14 14 14 14 14 14 14 14 14 14 15 15 15 16 16 16 16 17 17 17 17 17 17 17 17 17 18 18 18 18 18 18 19 19 19 19 20 20 20 20 21
14 14 13 13 13 13 13 14 14 14 15 15 15 16 16 16 16 16 17 17 17 17 17 17 17 17 17 18 18 18 18 18 19 19 19 19 19 20 20 21 21 21 22
12 12 12 13 13 13 13 14 14 15 15 15 16 16 16 16 16 17 17 17 17 17 17 17 17 17 17 17 18 18 18 18 19 19 19 19 20 20 21 21 22 22 23
12 12 12 13 13 14 14 14 15 15 15 16 16 16 17 17 17 17 17 17 17 17 17 17 17 17 17 17 17 17 17 18 18 18 18 19 19 20 21 21 22 22 23
13 13 14 14 15 15 15 15 16 16 16 17 17 17 17 17 17 17 18 18 18 17 17 17 17 17 17 17 17 17 17 18 18 18 19 19 20 20 21 21 22 23 23
14 15 15 16 16 16 16 17 17 17 17 18 18 18 18 18 18 18 18 18 19 19 18 18 18 18 18 18 18 18 18 18 19 19 19 19 20 21 21 22 22 23 24
16 16 17 17 18 18 18 18 19 19 19 19 19 19 19 19 19 19 19 19 19 19 19 19 18 18 18 18 18 18 18 18 19 19 19 19 20 21 21 22 22 23 24
18 18 19 19 20 20 20 20 20 20 20 20 20 20 20 20 20 20 20 20 20 20 20 19 19 19 19 19 19 19 19 19 19 20 20 21 21 21 22 22 23 24 25
18 19 20 21 22 22 22 22 22 22 22 22 22 22 22 22 22 22 21 21 21 21 21 21 21 21 20 21 21 21 21 21 21 22 22 22 23 23 24 24 25 25 26
18 20 21 22 22 23 23 23 23 24 24 23 23 23 23 23 24 23 23 23 23 23 23 23 23 23 23 23 23 23 23 24 24 24 25 25 25 26 26 27 27 28 28
19 20 21 22 23 23 24 24 25 25 25 25 25 25 25 25 25 26 25 26 25 26 26 26 26 26 26 26 26 26 27 27 27 27 28 28 29 29 29 30 30 31 31
20 20 21 22 23 24 24 25 25 26 26 27 27 27 27 27 28 28 28 28 28 28 28 29 29 29 29 30 30 30 31 31 31 31 32 32 32 32 33 33 34 34 35
20 20 21 22 23 24 25 26 26 27 27 28 28 29 29 30 30 30 30 31 31 31 32 32 32 33 33 33 34 34 35 35 36 36 36 36 37 37 37 37 38 38 38
20 21 21 22 23 24 25 26 27 27 28 28 29 30 30 31 32 32 33 33 34 34 35 35 36 36 37 38 38 39 40 40 41 41 41 41 41 41 42 42 42 43 43
21 21 21 22 23 24 25 25 26 27 28 28 29 30 31 32 33 33 34 35 36 37 37 38 38 39 40 41 42 43 44 45 45 45 45 46 46 46 46 47 47 47 47
20 21 21 22 22 23 24 25 26 27 27 28 29 30 31 32 33 34 34 35 37 37 38 39 40 41 42 43 44 46 47 47 48 48 49 49 49 50 50 50 51 51 51
20 20 21 22 22 23 24 24 25 26 27 28 29 30 31 32 33 34 34 36 37 37 38 39 40 41 43 44 45 47 48 48 49 50 51 51 52 52 53 54 54 55 55
20 21 22 23 24 24 25 26 27 28 28 29 30 30 31 32 33 33 34 35 36 37 37 39 40 41 42 44 45 47 48 49 50 51 52 52 53 54 55 56 57 57 58
22 23 24 25 26 27 27 28 28 29 30 30 30 31 32 32 33 33 34 35 36 36 37 39 40 41 43 45 46 47 48 49 50 51 52 53 54 55 57 58 59 59 60
24 25 26 27 28 28 28 29 29 30 30 31 31 32 32 32 33 33 34 35 36 37 38 40 41 43 44 46 47 48 48 49 50 51 53 55 56 57 59 60 61 61 62
26 26 27 28 28 28 29 29 29 29 29 30 30 31 31 31 32 33 34 35 37 38 40 41 43 44 45 47 49 51 51 51 53 54 55 57 58 60 61 62 63 64 65
26 27 28 28 28 28 28 27 27 27 27 28 28 29 30 32 33 34 35 37 38 40 41 43 45 47 48 50 52 54 56 56 57 56 57 59 62 64 65 66 67 68 69
28 28 29 29 28 27 26 25 25 25 26 27 29 30 31 32 34 36 37 39 40 42 44 46 48 50 52 54 56 58 60 62 63 63 62 63 65 67 69 70 72 73 73
29 29 29 29 27 26 25 25 26 27 28 29 31 32 33 34 36 38 40 42 44 46 48 50 52 55 57 59 61 63 65 67 69 71 71 71 71 72 73 74 76 77 78
30 30 29 28 27 26 26 27 28 29 30 32 33 35 36 38 40 42 44 46 48 51 53 55 57 60 62 64 66 69 71 73 74 77 78 79 79 80 81 81 81 82 83

GEFSSE_500_meanwind_096.txt.gz
Wind_Speed
13 14 14 15 15 16 16 16 16 16 16 17 17 17 17 17 17 17 17 17 17 17 18 18 18 19 19 19 19 19 19 19 19 18 18 18 18 18 18 18 18 18 17
13 14 14 15 16 16 16 16 17 17 17 17 17 17 17 17 17 17 18 18 18 18 18 18 19 19 19 19 19 19 19 19 19 19 19 19 18 18 19 19 19 18 18
12 13 14 15 15 16 16 16 17 17 17 17 18 18 18 18 18 18 18 18 18 18 19 19 19 19 19 19 19 19 19 19 19 19 19 19 19 19 18 19 19 19 19
11 12 13 14 15 15 16 17 17 17 17 18 18 18 18 18 18 18 18 18 19 19 19 19 19 19 19 19 19 19 20 19 19 19 19 19 19 19 18 18 19 19 19
10 12 13 14 14 15 16 16 17 17 18 18 18 18 18 18 18 18 18 19 18 18 18 18 18 18 19 19 19 19 19 19 19 19 19 19 19 19 18 18 18 18 19
11 12 13 14 15 15 16 17 17 18 18 18 18 18 18 18 18 18 18 18 18 18 18 18 18 19 19 19 19 19 19 19 19 18 18 18 18 18 18 18 18 19 19
12 13 14 15 15 16 17 18 18 18 19 19 20 20 19 19 19 19 18 18 18 18 18 19 19 19 19 19 19 19 19 19 19 18 18 18 18 18 18 19 19 19 19
13 14 16 16 17 18 19 19 20 20 20 20 21 20 20 20 20 20 19 19 19 19 19 19 19 20 19 19 19 19 19 19 19 19 19 19 19 19 19 19 19 19 20
15 16 17 18 19 20 20 21 21 21 22 22 22 22 22 21 21 21 21 21 20 20 20 20 20 20 20 20 20 19 19 19 19 19 19 19 19 20 20 20 20 21 21
17 17 19 19 20 21 22 22 22 23 23 23 23 23 23 23 23 23 23 23 22 22 22 22 21 21 21 21 21 21 21 21 21 21 21 21 21 21 22 22 22 22 23
18 19 19 21 21 22 22 23 23 23 23 24 24 24 25 24 24 25 25 24 24 24 24 24 23 23 23 24 24 24 24 24 24 24 24 24 24 24 24 24 25 25 26
19 20 20 21 22 22 23 23 24 24 24 25 25 26 26 26 26 26 26 26 26 26 26 26 26 26 26 26 27 27 27 27 27 27 27 27 27 27 28 28 28 29 29
21 21 21 21 22 23 23 24 24 25 25 26 26 26 27 27 27 27 28 28 28 28 28 28 28 29 29 29 30 30 30 31 31 31 31 31 32 32 32 33 33 34 34
22 22 22 22 22 22 23 23 24 24 25 25 26 26 27 27 28 28 28 29 30 30 30 30 31 31 32 32 33 33 34 34 35 35 35 36 36 37 37 38 38 39 39
22 22 22 22 22 22 23 23 23 23 24 25 26 26 27 27 28 28 29 29 30 31 31 32 33 33 34 35 36 36 37 38 39 39 40 40 41 42 43 43 44 44 45
21 21 21 22 22 22 22 23 23 24 24 25 26 26 27 27 28 28 29 30 30 31 32 32 34 35 36 37 38 39 40 40 41 42 43 44 45 46 47 48 48 49 49
20 20 21 21 21 22 22 23 24 24 25 26 26 27 28 28 28 29 29 30 31 32 32 33 34 35 36 37 38 40 41 42 43 44 44 45 46 47 49 50 51 52 52
20 20 20 21 21 22 23 24 25 26 27 28 28 29 29 29 30 30 30 31 32 32 33 34 35 36 36 37 38 39 40 40 41 43 44 45 46 47 48 50 51 52 53
19 19 20 21 22 24 25 26 27 28 29 29 30 30 30 31 31 31 31 31 32 32 33 33 34 35 36 37 38 39 39 40 41 43 44 45 46 47 48 49 51 52 54
20 20 21 23 24 25 26 28 29 29 30 30 30 31 31 31 31 31 31 32 32 32 33 34 35 36 36 38 38 39 40 41 42 43 44 45 46 48 49 50 51 53 54
21 22 23 24 25 26 27 28 29 29 30 30 30 30 30 30 30 30 30 31 31 32 33 34 35 35 36 38 39 39 40 41 42 44 45 46 48 49 51 52 54 55 56
22 23 24 25 25 26 27 28 29 30 30 30 29 29 29 29 29 29 30 31 31 32 33 35 36 36 37 39 41 41 41 42 44 46 47 48 50 52 53 55 57 58 60
23 24 25 26 26 27 28 29 29 30 29 29 28 28 28 29 29 30 31 31 32 33 34 36 37 38 40 42 44 46 47 47 47 48 50 52 54 55 57 58 60 62 63
25 25 26 27 27 29 30 30 30 30 29 29 29 29 30 30 31 32 33 34 35 36 38 39 41 42 44 45 48 50 52 54 55 54 53 55 58 60 61 63 64 65 67
26 26 27 28 29 30 31 31 31 30 30 30 31 31 32 33 33 35 36 37 38 40 41 43 45 47 49 50 52 54 56 58 60 62 61 60 61 63 65 67 69 70 71
27 28 29 30 31 32 33 33 33 32 32 32 33 34 35 36 37 38 39 40 42 44 46 47 49 51 53 55 57 59 60 62 63 66 67 67 67 67 68 70 72 75 76

GEFSSE_500_meanwind_102.txt.gz
Wind_Speed
10 10 11 11 11 11 11 12 12 12 13 14 14 15 15 15 16 16 16 16 17 17 17 18 18 18 18 18 18 18 18 18 18 18 18 18 17 17 17 17 16 16 15
11 11 11 11 11 11 11 12 12 13 13 14 15 15 16 16 16 16 17 17 17 17 18 18 18 18 19 19 19 18 18 18 18 18 18 18 18 18 18 17 17 17 17
10 10 10 11 11 11 11 12 12 13 13 14 15 15 16 16 17 17 17 18 18 18 18 18 19 19 19 19 19 18 18 19 19 19 19 18 18 18 18 18 18 17 17
9 10 10 10 11 11 11 12 12 12 13 14 14 15 16 16 17 17 17 18 18 18 19 19 19 19 19 19 19 18 18 19 19 19 19 18 18 18 18 18 18 18 17
9 9 10 10 10 10 11 11 12 12 13 14 14 15 16 16 17 17 17 18 18 18 18 19 19 19 19 19 19 19 19 19 19 19 19 19 19 19 19 18 18 18 17
8 9 9 9 9 10 11 11 12 13 13 14 15 15 16 17 17 18 18 18 18 18 19 19 20 20 19 19 19 19 19 19 20 20 20 19 19 19 19 19 18 18 18
7 8 8 9 10 10 11 12 13 14 14 15 16 16 17 17 18 19 19 19 19 20 20 20 20 20 20 20 20 20 20 21 21 21 21 21 20 20 20 20 20 19 19
8 9 10 11 11 12 13 14 15 15 16 17 17 18 18 19 19 20 20 20 21 21 21 21 21 21 21 21 22 22 22 22 22 22 22 22 22 22 22 22 21 21 21
10 10 11 12 13 14 15 16 16 17 18 18 19 19 20 20 21 21 22 22 22 23 23 23 23 23 23 23 23 23 23 24 24 24 24 23 23 23 24 24 24 24 24
13 13 13 14 15 16 17 17 18 19 19 20 20 21 22 22 23 23 24 24 25 25 25 25 26 26 25 25 25 25 25 26 26 26 26 26 26 26 26 26 26 26 26
15 16 16 17 18 18 19 19 19 20 20 21 22 22 23 24 24 25 25 26 26 27 27 27 28 28 28 28 28 28 28 28 29 29 29 29 29 29 29 29 29 30 30
17 18 18 19 19 20 20 20 21 21 21 22 22 23 24 25 25 26 26 27 28 28 29 29 30 30 30 31 31 31 31 31 32 32 32 32 32 33 33 33 33 34 34
18 19 20 20 20 20 21 21 21 22 22 22 23 23 24 24 25 25 26 27 28 28 29 30 31 31 32 32 33 33 33 34 34 35 35 36 36 36 37 37 37 37 38
19 20 21 22 22 21 21 21 22 22 22 22 23 23 24 24 25 26 27 28 28 29 30 30 31 32 32 33 34 34 35 35 36 37 37 38 39 39 40 40 41 41 42
20 20 21 22 22 22 22 22 22 22 22 23 23 24 24 25 26 27 28 29 29 30 30 31 32 32 33 34 34 35 35 36 36 37 38 39 40 41 42 43 43 44 45
21 20 20 21 22 22 22 22 22 22 23 23 24 25 25 26 27 28 29 30 31 31 32 32 33 33 34 34 35 35 36 36 37 38 39 40 41 42 43 44 45 46 47
21 21 21 21 22 22 22 22 22 23 24 25 26 27 28 28 29 30 30 31 32 32 33 33 34 34 34 35 35 36 36 37 38 39 39 41 42 43 44 45 46 47 48
22 22 21 22 22 22 22 23 23 25 26 27 28 29 30 30 31 32 32 33 33 33 34 34 34 34 35 35 35 36 36 37 38 39 39 40 41 43 44 45 46 47 48
22 22 22 22 22 22 23 24 25 26 27 28 29 30 31 32 32 32 33 33 33 34 34 34 35 35 36 36 36 36 37 37 38 39 40 41 42 43 44 45 46 47 48
22 22 22 22 23 23 24 25 26 27 28 29 30 31 31 32 32 33 33 33 33 34 34 34 34 34 35 36 36 36 37 38 39 40 40 41 43 44 45 46 47 49 50
23 23 23 23 23 24 25 26 27 28 29 29 30 31 32 32 33 33 33 33 33 33 33 34 34 35 36 36 36 36 37 38 39 40 41 42 43 45 46 47 48 50 52
24 24 24 24 24 25 26 27 28 28 29 30 31 32 32 33 33 33 33 33 33 34 35 35 36 36 38 39 39 38 37 38 40 41 42 44 46 47 49 51 52 54 55
25 25 25 25 26 26 27 28 29 29 30 31 32 33 33 34 34 34 34 34 35 36 37 38 38 39 39 40 41 42 42 41 42 42 45 47 49 51 53 55 56 58 59
26 26 26 26 27 28 28 29 30 31 32 33 33 34 35 35 35 35 36 36 37 37 38 39 40 41 41 43 44 46 48 48 48 47 47 49 52 54 56 58 60 61 63
27 27 27 28 28 29 30 31 31 32 33 34 35 36 36 37 37 37 38 39 39 40 41 41 43 44 45 46 48 50 51 53 55 56 54 53 55 56 59 61 62 64 66
27 28 28 29 30 30 31 32 33 34 35 36 36 37 38 38 39 39 40 41 41 42 43 44 46 47 49 50 51 53 54 56 58 60 61 60 59 60 61 63 65 67 69

GEFSSE_500_meanwind_108.txt.gz
Wind_Speed
12 12 12 12 12 12 12 12 12 13 13 13 13 13 13 14 14 14 14 15 15 16 16 17 18 18 18 19 19 20 20 21 21 21 21 21 20 20 20 20 20 20 20
13 13 13 13 13 13 13 14 14 14 14 14 14 14 15 15 15 15 16 16 17 17 18 18 19 19 20 20 21 21 22 22 22 22 22 22 22 22 22 22 21 21 21
13 13 13 13 13 13 14 14 14 14 14 15 15 15 15 15 16 16 16 17 17 18 18 19 20 20 21 22 22 23 23 23 24 24 24 24 23 23 23 23 23 23 23
12 12 13 13 13 13 14 14 15 15 15 15 15 15 16 16 16 17 17 18 18 19 19 20 20 21 22 22 23 23 24 24 24 25 25 25 24 24 24 24 24 24 24
12 12 13 13 13 13 13 14 15 15 15 15 15 15 16 16 17 17 18 18 19 19 19 20 21 21 22 23 23 24 24 24 24 25 25 25 25 25 25 25 25 25 25
12 12 13 13 13 14 14 14 14 15 15 15 16 16 16 17 18 18 19 19 20 20 21 21 22 22 23 24 24 24 25 25 25 25 25 25 25 26 25 25 26 26 26
11 11 12 12 13 13 14 14 14 15 16 16 17 17 18 19 19 20 20 21 21 22 23 23 23 24 24 25 25 25 25 25 26 26 26 26 27 27 27 27 27 27 27
10 11 12 12 13 13 14 14 15 16 17 17 18 19 19 20 21 21 22 22 23 23 24 24 25 25 25 26 26 26 26 27 27 27 27 28 28 28 28 28 28 28 28
11 12 12 13 14 15 15 16 16 17 18 19 19 20 21 22 22 23 23 24 24 25 25 26 26 26 27 27 28 28 28 28 29 29 29 29 29 30 30 30 29 29 29
13 13 14 15 15 16 16 17 17 18 19 20 20 21 22 23 23 24 24 25 25 26 26 27 28 28 29 29 29 30 30 30 30 30 31 31 31 31 31 31 31 31 31
15 16 16 17 17 18 18 19 19 20 20 21 21 22 23 23 24 24 25 25 26 27 27 28 28 29 30 30 31 31 32 32 32 32 32 33 33 33 33 33 33 33 33
18 18 19 19 20 20 20 21 21 21 21 22 22 22 23 23 24 24 25 25 26 27 27 28 29 30 31 31 32 32 33 33 34 34 34 34 35 35 35 36 36 36 36
20 20 20 21 21 21 22 22 22 22 22 23 23 23 23 23 24 24 25 26 27 27 28 29 30 31 31 32 33 33 34 34 35 35 36 36 36 37 37 38 38 39 39
22 22 22 22 22 22 23 23 23 23 23 23 23 23 23 24 24 25 25 26 27 28 29 30 31 31 32 32 33 34 34 35 36 37 37 38 38 39 39 40 40 41 41
24 24 24 23 23 23 23 24 23 23 23 23 23 23 24 24 25 26 27 28 29 30 31 32 32 33 33 34 34 35 35 36 37 37 38 39 39 39 40 41 42 42 43
25 26 26 25 25 24 25 25 24 24 24 24 24 24 25 26 26 28 29 30 31 31 32 33 33 34 35 35 36 36 36 37 38 38 39 39 40 40 40 41 41 42 43
26 27 27 26 26 26 26 25 25 24 24 24 25 25 26 27 28 29 31 32 32 33 34 34 35 35 36 36 36 36 37 38 38 39 39 40 40 41 41 41 42 43 43
28 28 28 28 27 27 26 26 25 25 25 26 26 27 28 29 30 31 32 33 34 34 35 35 35 36 36 36 37 37 37 38 38 39 40 40 41 42 42 42 43 43 44
29 29 29 29 28 28 27 26 26 26 26 27 27 28 29 30 31 32 33 34 34 35 35 35 35 36 36 37 37 37 37 38 39 40 40 41 41 42 43 43 43 44 44
30 30 30 29 29 28 28 27 27 27 28 28 29 30 31 31 32 33 34 34 35 35 36 36 36 37 37 37 37 37 38 39 39 40 41 42 42 43 43 44 44 45 45
31 31 30 30 30 29 29 29 29 29 29 30 31 32 32 33 33 34 35 35 36 36 37 37 37 38 38 38 38 38 39 40 41 41 42 43 43 44 44 45 46 46 47
32 31 31 31 31 30 30 30 30 30 31 32 32 33 34 34 34 35 36 37 37 38 38 38 38 39 39 40 40 40 40 41 42 43 44 45 46 46 47 48 48 49 50
32 32 32 31 31 31 31 31 32 32 32 33 34 34 35 35 36 37 37 38 38 39 39 40 40 40 41 42 43 43 42 42 42 43 45 46 48 48 49 50 51 53 54
33 32 32 32 32 32 32 32 33 33 34 34 35 36 36 37 38 39 39 39 40 40 40 41 42 42 43 44 45 45 46 46 45 43 43 46 48 50 51 52 54 55 57
33 33 33 33 34 34 34 34 34 35 35 36 36 37 37 38 39 40 40 41 41 42 43 43 44 44 45 45 46 47 48 49 50 49 47 47 49 51 53 54 56 57 58
34 34 34 34 35 35 35 35 35 36 36 36 37 38 39 40 41 41 42 43 43 44 44 45 46 46 46 47 48 49 50 51 52 53 53 52 51 51 53 55 56 58 59

GEFSSE_500_meanwind_114.txt.gz
Wind_Speed
12 12 12 12 12 12 12 13 13 13 14 14 15 15 16 16 16 17 17 17 17 18 18 18 18 18 19 19 19 19 20 20 20 20 21 21 21 21 21 22 22 22 23
13 13 13 13 13 14 14 14 14 15 15 15 15 16 16 17 17 18 18 18 18 19 19 19 19 20 20 20 20 20 21 21 21 21 22 22 22 23 23 23 23 23 23
13 13 13 14 14 14 14 14 15 15 15 15 16 16 17 17 17 17 18 18 19 19 19 19 20 20 20 20 21 21 21 21 22 22 22 23 23 23 23 24 24 24 24
13 13 13 13 13 14 14 14 15 15 15 16 16 17 17 17 18 18 18 18 18 19 19 19 19 19 20 20 20 21 21 22 22 22 23 23 23 23 24 24 24 24 24
13 13 13 13 13 14 14 15 15 15 16 16 17 17 17 17 18 18 18 18 18 18 19 19 19 20 20 20 21 21 21 22 22 23 23 23 23 23 24 24 24 25 25
13 13 13 13 14 14 14 15 15 15 16 16 17 17 17 17 17 18 18 18 19 19 19 20 20 21 21 21 22 22 22 22 23 23 23 24 24 24 24 24 25 25 25
12 12 12 13 13 14 14 15 15 15 16 16 17 17 17 18 18 18 19 19 20 20 20 21 21 22 22 22 22 23 23 24 24 24 24 24 25 25 25 25 26 26 26
11 12 12 13 14 14 14 15 15 15 16 17 17 18 18 19 19 20 20 21 21 21 22 22 22 22 23 23 24 24 25 25 26 26 26 26 27 27 27 27 28 28 28
12 13 13 14 14 15 15 15 16 17 17 18 18 19 20 20 21 22 22 22 22 23 23 23 23 24 24 24 25 26 26 27 27 28 28 28 29 29 29 29 29 30 30
13 14 14 15 15 16 16 17 18 18 19 19 20 20 21 21 22 22 22 22 22 23 23 23 24 24 25 25 26 26 27 28 29 29 30 30 30 31 31 31 31 32 32
14 15 15 16 16 17 18 18 19 20 20 21 21 21 22 22 22 22 23 23 23 23 24 24 24 25 25 26 27 27 28 28 29 30 30 31 31 32 32 33 33 34 34
16 16 17 17 18 19 19 20 21 21 21 22 22 23 23 23 23 23 23 23 24 24 24 24 25 25 26 27 27 28 29 29 30 30 31 31 32 32 33 34 34 35 35
17 18 18 19 20 20 21 22 22 22 23 23 24 24 24 24 24 24 24 24 24 24 25 25 25 26 27 28 29 29 30 31 31 31 32 32 33 33 34 35 35 36 36
19 20 20 21 21 22 23 23 23 24 24 25 25 25 25 25 25 25 25 25 25 25 25 26 27 27 28 29 30 31 31 32 32 32 33 33 34 35 35 36 36 37 37
21 22 22 22 23 24 24 25 25 25 26 26 26 26 26 26 25 25 25 26 26 26 27 27 28 29 30 31 31 32 32 33 33 33 34 34 35 35 36 37 37 37 38
23 23 24 24 24 25 25 26 27 27 27 27 27 27 27 27 26 26 26 27 27 27 28 29 30 31 31 32 32 33 33 33 33 34 34 35 35 36 36 37 37 38 39
25 25 25 25 26 26 27 28 28 28 28 29 28 28 28 28 27 28 28 28 28 29 30 30 31 32 32 33 33 33 33 34 34 35 35 36 36 36 37 37 38 39 40
27 27 27 27 27 28 29 29 30 30 29 29 29 29 29 29 29 29 29 29 30 31 31 32 32 33 33 34 34 34 35 35 36 37 37 38 38 38 38 39 39 40 40
29 29 29 29 29 30 30 31 31 31 30 30 30 30 30 30 30 30 30 31 31 32 33 33 33 34 34 35 36 36 36 37 38 38 39 39 39 40 40 40 41 41 42
31 31 31 31 31 31 31 32 32 32 32 31 31 31 31 31 31 31 32 32 33 33 34 34 35 35 35 36 37 37 38 38 39 40 40 40 41 42 42 42 43 43 44
33 33 33 33 33 32 32 32 32 32 32 32 32 32 32 32 32 32 32 33 33 34 35 35 36 36 36 37 37 38 39 40 40 41 42 42 43 43 44 44 45 45 46
35 34 34 34 34 33 33 33 33 33 32 32 32 32 32 33 33 33 33 34 34 35 36 37 37 37 38 38 39 39 40 41 42 42 43 44 45 45 46 46 47 48 48
36 35 35 35 34 34 34 34 34 33 33 33 33 33 33 33 34 34 35 35 36 37 37 38 38 39 39 40 40 41 41 41 42 43 44 45 46 47 48 48 49 50 50
37 36 36 35 34 34 34 34 34 34 34 34 34 34 34 34 35 35 36 36 37 38 39 39 40 40 41 41 42 42 43 43 43 42 44 46 47 48 49 50 51 52 52
37 36 35 35 35 34 34 34 34 34 34 34 34 34 35 35 35 36 36 37 38 39 40 40 41 41 42 43 43 43 44 44 45 44 44 45 46 48 49 51 52 53 54
36 35 35 34 34 34 34 34 34 34 35 35 35 36 36 36 36 37 38 38 39 40 40 41 41 42 43 44 44 45 45 46 46 46 46 46 46 47 49 50 52 54 55

GEFSSE_500_meanwind_120.txt.gz
Wind_Speed
13 13 13 12 12 12 12 11 12 12 12 13 13 13 13 13 13 13 14 15 15 15 15 16 16 16 16 17 17 17 17 18 19 19 19 19 19 19 19 19 19 19 19
14 13 13 13 13 13 13 12 13 13 13 13 12 12 12 12 13 14 14 15 15 15 16 16 17 17 17 17 17 18 18 18 18 18 18 19 19 19 19 20 20 20 20
14 14 14 14 14 13 13 13 12 12 12 12 12 12 12 13 13 14 15 15 16 16 17 17 17 17 17 17 18 18 18 18 18 18 19 19 19 20 20 20 20 21 21
15 15 14 14 13 13 13 12 12 12 12 12 12 13 13 13 14 15 15 16 16 16 17 17 17 17 18 18 19 19 19 19 19 19 19 20 20 20 21 21 22 22 22
14 14 14 13 13 12 12 12 12 12 12 13 13 13 13 14 14 15 15 16 16 16 17 17 17 18 18 19 20 20 20 21 21 21 21 21 22 22 22 22 23 23 23
13 13 13 13 12 12 12 12 12 13 13 13 13 13 13 14 14 15 15 16 16 17 18 18 19 19 20 20 21 21 22 22 22 23 23 23 24 24 24 25 25 25 25
13 13 12 12 12 12 11 12 12 12 13 13 13 13 14 14 15 16 16 17 17 18 19 19 20 21 21 22 22 23 23 23 24 24 25 25 26 26 27 27 27 27 28
11 12 12 12 12 12 12 12 13 13 13 14 14 14 15 15 16 17 17 18 19 19 20 21 21 22 22 23 23 24 24 25 25 26 26 27 28 28 29 29 29 30 30
11 11 11 12 12 12 13 14 14 14 14 15 15 16 16 17 17 18 19 19 20 21 21 22 22 23 23 24 25 25 26 26 27 27 28 28 29 29 30 30 31 31 31
12 12 12 13 13 14 14 15 15 15 15 16 17 17 18 18 19 20 20 21 21 22 23 23 23 24 25 25 26 26 27 27 28 28 29 30 30 30 31 31 31 32 32
13 13 14 14 14 15 15 16 16 16 16 17 18 18 19 20 20 21 21 22 22 23 24 24 25 25 26 26 27 27 28 28 29 29 30 31 31 31 32 32 33 33 33
15 15 15 15 15 16 16 16 17 17 18 18 19 20 20 21 22 22 22 23 24 24 25 25 25 26 26 27 28 28 29 29 30 30 31 32 32 32 33 33 33 34 34
16 17 17 17 17 17 18 18 18 19 19 20 21 21 22 22 23 23 24 24 25 25 26 26 27 27 28 28 29 29 30 30 30 31 31 32 33 33 33 33 34 34 35
19 19 19 19 19 19 20 20 20 21 21 22 22 23 24 24 25 25 26 26 26 27 27 28 28 28 29 29 30 30 31 31 32 32 32 33 33 34 34 34 34 34 35
21 21 21 21 21 21 22 22 22 23 23 24 24 25 26 26 27 27 27 27 28 28 28 29 29 29 30 31 31 31 32 32 33 33 33 34 34 34 35 35 35 36 36
23 24 24 23 23 23 24 24 24 25 25 26 26 27 27 28 28 28 28 28 29 29 29 30 30 31 31 32 33 33 33 33 34 34 34 34 35 35 35 36 36 37 38
26 26 25 25 25 26 26 26 26 27 27 28 28 29 29 30 30 30 30 30 30 31 31 31 32 32 33 33 34 34 34 34 35 35 35 35 35 36 36 37 37 38 39
28 28 28 28 28 28 28 29 29 29 29 30 30 31 31 31 31 31 31 31 31 32 32 33 33 34 34 34 35 35 35 36 35 35 36 36 36 36 37 38 38 39 39
31 30 30 30 31 31 31 31 31 31 31 32 32 32 32 32 32 32 32 32 33 33 34 34 34 35 35 35 35 36 37 37 36 36 37 37 38 38 38 39 39 40 40
34 33 33 33 33 34 34 34 34 34 34 34 33 33 33 33 33 33 33 34 34 34 34 35 35 35 36 36 36 37 37 37 37 38 38 38 39 39 39 39 40 40 41
36 36 35 35 35 36 36 36 36 36 36 35 35 35 34 34 33 34 34 34 34 35 35 35 36 36 37 37 37 37 38 38 39 39 39 39 40 40 41 41 41 41 42
38 38 38 38 38 38 38 38 38 38 37 36 36 35 35 34 34 35 35 35 35 35 35 36 37 37 37 37 38 38 38 39 39 40 40 41 41 42 42 42 42 43 43
40 41 41 41 40 40 40 40 39 38 38 37 36 36 35 35 35 35 35 35 35 36 36 37 37 37 38 38 39 40 39 39 39 40 41 42 43 43 43 43 44 44 45
42 43 43 42 42 41 41 40 39 39 38 37 37 36 35 35 35 35 35 35 35 36 37 37 38 38 39 39 40 40 41 41 41 41 42 43 43 44 44 45 46 46 46
42 43 43 43 42 41 41 40 40 39 38 38 37 36 36 35 35 36 36 36 36 37 37 38 39 39 40 40 41 41 41 42 43 42 42 43 44 45 45 46 47 47 47
42 42 43 42 42 41 41 40 40 39 39 38 37 36 36 36 36 36 36 36 37 37 38 39 40 40 41 41 42 42 43 43 43 44 43 43 44 45 45 46 47 47 48

GEFSSE_500_meanwind_126.txt.gz
Wind_Speed
14 14 13 12 12 11 10 10 10 9 9 9 10 10 10 10 10 10 10 11 12 12 12 13 13 14 14 15 15 16 16 17 18 18 19 19 19 19 19 19 19 20 21
15 15 14 13 13 12 12 11 11 10 10 10 10 10 10 10 10 11 11 12 13 13 14 14 14 15 15 16 16 16 17 17 18 18 19 19 19 20 20 21 21 21 21
16 16 15 14 14 13 12 12 11 11 10 10 10 10 11 11 12 12 13 14 14 14 15 15 15 16 16 16 16 16 17 18 18 19 20 20 20 21 21 22 22 22 23
18 17 16 15 14 13 13 12 12 11 11 11 11 11 12 13 13 13 14 14 14 15 15 16 16 16 16 16 17 17 18 19 19 20 20 21 21 22 22 23 23 24 24
18 18 17 16 15 13 13 12 12 11 11 11 12 12 13 13 13 13 13 14 14 15 15 16 16 16 17 17 18 18 19 20 20 21 21 22 23 23 24 24 25 25 26
18 18 17 15 14 13 13 12 12 12 12 12 12 12 13 13 13 13 13 14 15 15 16 16 17 17 18 18 19 19 20 21 22 22 23 23 24 24 25 26 26 27 27
17 17 16 15 14 13 13 12 12 12 12 12 12 12 12 12 13 14 14 15 16 16 17 17 18 18 19 20 20 21 21 22 23 23 24 24 25 25 26 27 28 28 29
16 16 15 15 14 13 12 12 11 11 11 11 12 12 13 14 14 15 16 16 17 17 18 19 19 20 20 21 21 22 22 23 24 24 25 26 26 27 28 28 29 30 30
15 15 14 14 13 12 12 12 12 12 12 12 13 14 15 15 16 16 17 18 18 19 19 20 21 21 22 22 22 23 23 24 25 25 26 26 27 28 29 29 30 31 31
15 14 14 13 13 13 12 12 12 13 13 14 15 15 16 16 17 17 18 19 19 20 20 21 22 22 23 23 24 24 25 25 26 26 27 28 28 29 29 30 31 31 32
15 14 14 14 13 13 13 13 13 14 14 15 15 15 16 16 17 18 19 20 20 21 21 22 23 24 24 24 25 25 26 26 27 28 28 29 29 30 30 31 31 32 32
15 15 14 14 14 13 13 13 14 14 15 15 16 16 17 18 18 19 20 21 22 22 23 24 24 25 25 25 26 26 27 28 28 29 30 30 31 31 32 32 32 33 33
16 15 15 14 14 14 14 14 15 15 15 16 17 18 19 19 20 21 22 23 24 24 25 25 26 26 26 27 27 28 28 29 30 30 31 31 32 32 33 33 33 34 34
17 16 15 15 15 15 15 15 15 16 16 17 18 19 20 21 22 23 24 25 25 26 26 27 27 28 28 28 29 29 30 31 31 32 33 33 33 34 34 35 35 35 35
18 17 17 16 16 16 16 16 17 17 18 19 19 21 22 23 24 25 26 26 27 28 28 29 29 29 29 30 30 31 31 32 33 34 34 35 35 35 35 36 36 36 36
20 19 18 18 18 18 18 18 19 19 20 21 21 22 24 25 26 27 28 28 29 30 30 30 30 31 31 31 32 32 32 33 33 34 35 35 36 36 36 36 37 37 37
22 21 21 20 20 20 21 21 21 22 22 23 23 24 26 27 28 29 30 30 31 31 31 32 32 32 32 33 33 33 33 34 34 35 35 35 36 36 37 37 37 38 38
25 24 23 23 23 23 23 23 24 24 25 25 26 27 28 29 30 31 31 32 32 32 33 33 33 33 34 34 34 34 34 35 35 35 35 36 36 37 38 38 39 39 39
27 26 26 25 25 25 26 26 26 26 27 28 29 29 30 31 32 32 33 33 34 34 34 34 34 34 34 34 34 35 35 36 36 36 36 37 37 38 38 39 39 40 40
30 29 28 28 28 28 28 28 28 29 29 30 31 31 32 33 33 34 34 34 35 35 34 34 34 35 35 35 35 35 35 36 37 37 37 38 38 39 39 39 40 41 41
32 31 30 30 30 30 30 30 30 31 32 32 33 33 34 35 35 35 35 35 35 35 35 35 35 35 35 36 36 36 36 37 37 38 38 38 39 39 39 40 41 42 43
35 34 33 33 32 32 32 33 33 33 33 34 34 35 36 36 36 36 36 36 36 36 36 36 36 36 36 36 36 37 37 38 38 39 39 40 40 40 41 42 43 43 44
38 37 36 36 35 35 35 35 35 35 35 35 35 36 36 36 36 37 37 37 37 36 36 36 36 36 36 37 37 37 38 38 39 39 40 41 42 42 43 44 44 44 44
40 39 39 38 38 37 37 37 37 36 36 36 37 38 38 37 37 37 38 38 38 37 37 36 36 37 37 37 38 38 39 39 39 40 41 42 43 44 44 44 45 45 44
42 41 40 40 39 38 38 38 38 38 38 39 39 39 38 38 38 38 38 38 38 37 37 37 38 38 38 38 38 39 39 40 41 41 42 43 43 44 44 45 45 45 45
43 43 42 41 40 39 39 39 39 39 38 39 39 39 39 39 39 38 39 39 38 38 38 38 38 38 39 39 39 39 40 41 41 42 42 43 43 44 44 45 45 45 45